Sacramento, CA

11:06 PM PDT on May 27, 2017 (GMT -0700)
Sacramento Executive

Weather History for KSAC - November, 2011

Change the Weather History Date:

Thursday, November 17, 2011

  Actual Average Record
Temperature  
Mean Temperature 55 °F -  
Max Temperature 66 °F 63 °F 76 °F (1967)
Min Temperature 43 °F 42 °F 26 °F (1961)
Degree Days  
Heating Degree Days 10    
Month to date heating degree days 200  
Cooling Degree Days 0    
Month to date cooling degree days 0  
Year to date cooling degree days 1153  
Growing Degree Days 4 (Base 50)    
Moisture  
Dew Point 47 °F    
Average Humidity 78    
Maximum Humidity 100    
Minimum Humidity 56    
Precipitation  
Precipitation 0.00 in 0.07 in 0.92 in (1973)
Month to date precipitation 0.26 1.03  
Year to date precipitation 16.20 14.22  
Since 1 July precipitation 1.60  
Sea Level Pressure  
Sea Level Pressure 30.10 in    
Wind  
Wind Speed 6 mph (South)    
Max Wind Speed 15 mph    
Max Gust Speed 18 mph    
Visibility 10 miles    
Events      
T = Trace of Precipitation, MM = Missing Value Source: NWS Daily Summary

Daily Weather History Graph

Daily Weather History Graph

Search for Another Location

Airport or City:

Trip Planner

Search our weather history database for the weather conditions in past years. The results will help you decide how hot, cold, wet, or windy it might be!

Date:

Astronomy

Nov. 17, 2011 Rise Set
Actual Time 6:49 AM PST 4:51 PM PST
Civil Twilight 6:21 AM PST 5:20 PM PST
Nautical Twilight 5:49 AM PST 5:52 PM PST
Astronomical Twilight 5:17 AM PST 6:23 PM PST
Moon 11:16 PM PST (11/17) 12:02 PM PST (11/17)
Length of Visible Light 10h 58m
Length of Day
10h 01m
Waning Gibbous, 59% of the Moon is Illuminated
Nov 17
Waning Gibbous
Nov 18
Last Quarter
Nov 24
New
Dec 2
First Quarter
Dec 10
Full

Hourly Weather History & Observations

Time (PST) Temp. Windchill Dew Point Humidity Pressure Visibility Wind Dir Wind Speed Gust Speed Precip Events Conditions
12:53 AM 48.0 °F - 44.1 °F 86% 30.18 in 10.0 mi SSE 3.5 mph - N/A   Clear
1:53 AM 48.0 °F - 44.1 °F 86% 30.18 in 10.0 mi SE 4.6 mph - N/A   Clear
2:53 AM 43.0 °F 40.3 °F 42.1 °F 97% 30.19 in 6.0 mi SE 4.6 mph - N/A   Clear
3:53 AM 45.0 °F 42.6 °F 43.0 °F 93% 30.18 in 9.0 mi SE 4.6 mph - N/A   Clear
4:53 AM 46.0 °F - 43.0 °F 89% 30.17 in 10.0 mi Calm Calm - N/A   Clear
5:53 AM 46.0 °F 44.8 °F 43.0 °F 89% 30.17 in 10.0 mi SSE 3.5 mph - N/A   Clear
6:53 AM 46.0 °F 43.9 °F 43.0 °F 89% 30.17 in 8.0 mi SSE 4.6 mph - N/A   Clear
7:53 AM 48.9 °F - 45.0 °F 86% 30.17 in 7.0 mi SSE 5.8 mph - N/A   Clear
8:53 AM 53.6 °F - 48.2 °F 82% 30.18 in 10.0 mi South 8.1 mph - N/A   Clear
9:53 AM 57.0 °F - 48.9 °F 74% 30.17 in 10.0 mi South 6.9 mph - N/A   Scattered Clouds
10:53 AM 60.1 °F - 48.9 °F 67% 30.15 in 10.0 mi SSW 10.4 mph 17.3 mph N/A   Scattered Clouds
11:53 AM 62.1 °F - 48.9 °F 62% 30.12 in 10.0 mi SSW 11.5 mph 16.1 mph N/A   Mostly Cloudy
12:53 PM 64.0 °F - 48.0 °F 56% 30.08 in 10.0 mi SSW 10.4 mph 18.4 mph N/A   Mostly Cloudy
1:53 PM 63.0 °F - 48.9 °F 60% 30.05 in 10.0 mi SSW 10.4 mph - N/A   Mostly Cloudy
2:53 PM 64.9 °F - 50.0 °F 58% 30.04 in 10.0 mi South 11.5 mph - N/A   Mostly Cloudy
3:53 PM 64.0 °F - 51.1 °F 63% 30.03 in 10.0 mi SSW 9.2 mph - N/A   Mostly Cloudy
4:53 PM 60.1 °F - 51.1 °F 72% 30.03 in 10.0 mi South 6.9 mph - N/A   Scattered Clouds
5:53 PM 59.0 °F - 51.1 °F 75% 30.02 in 10.0 mi SSW 6.9 mph - N/A   Mostly Cloudy
6:53 PM 57.9 °F - 51.1 °F 78% 30.02 in 10.0 mi SSW 5.8 mph - N/A   Overcast
7:53 PM 55.9 °F - 51.1 °F 84% 30.01 in 10.0 mi SW 11.5 mph 17.3 mph N/A   Partly Cloudy
8:53 PM 55.9 °F - 51.1 °F 84% 30.01 in 10.0 mi SW 18.4 mph 25.3 mph N/A   Clear
9:53 PM 55.9 °F - 51.1 °F 84% 30.02 in 10.0 mi SSW 9.2 mph - N/A   Clear
10:53 PM 55.0 °F - 48.0 °F 77% 30.02 in 10.0 mi SSW 11.5 mph - N/A   Clear
11:53 PM 51.1 °F - 45.0 °F 80% 30.04 in 10.0 mi South 3.5 mph - N/A   Clear